Regional Weather Roundup
Issued by NWS Upton, NY

Current Version | Previous Version | Text Only | Print | Product List | Glossary On
Versions: 1 2 3 4 5 6 7 8 9 10 11 12 13 14 15 16 17 18 19 20 21 22 23 24 25 26 27 28 29 30 31 32 33 34 35 36 37 38 39 40 41 42 43 44 45 46 47 48 49 50
000 ASUS41 KOKX 171605 RWROKX REGIONAL WEATHER ROUNDUP NATIONAL WEATHER SERVICE NEW YORK NY 1100 AM EST WED DEC 17 2014 NOTE: "FAIR" INDICATES FEW OR NO CLOUDS BELOW 12,000 FEET WITH NO SIGNIFICANT WEATHER AND/OR OBSTRUCTIONS TO VISIBILITY. NYZ071-072-176-178-NJZ106-104-171700- NEW YORK CITY METRO AREA CITY SKY/WX TMP DP RH WIND PRES REMARKS CENTRAL PARK MOSUNNY 50 39 66 W8 29.87F LAGUARDIA APRT MOSUNNY 50 41 71 NW14 29.84F KENNEDY INTL MOSUNNY 52 40 63 NW15 29.85F NEWARK/LIBERTY MOSUNNY 53 43 68 W9 29.85F BRNX BOT. GARD N/A 50 39 66 W18 29.85F TETERBORO MOSUNNY 51 40 65 W9 29.84F $$ NYZ177-179-078>081-171700- LONG ISLAND NEW YORK CITY SKY/WX TMP DP RH WIND PRES REMARKS FARMINGDALE SUNNY 50 41 71 NW9 29.83F ISLIP MOSUNNY 51 42 71 W12 29.80F SHIRLEY MOSUNNY 49 43 80 W8 29.82F WESTHAMPTON PTSUNNY 48 43 82 W12 29.82F MONTAUK POINT N/A 46 42 86 W12 29.78F $$ NYZ052-065-067-171700- HUDSON VALLEY CITY SKY/WX TMP DP RH WIND PRES REMARKS WHITE PLAINS MOSUNNY 49 40 71 NW16G22 29.81F NEWBURGH PTSUNNY 48 43 81 NW14G21 29.83F MONTGOMERY PTSUNNY 51 40 65 W13G23 29.82S POUGHKEEPSIE MOSUNNY 46 42 86 CALM 29.82F ALBANY FOG 38 36 92 CALM 29.82F VSB 1 $$ NJZ001-105-106-008-010-013-015-019>022-104-171700- NEW JERSEY CITY SKY/WX TMP DP RH WIND PRES REMARKS NEWARK/LIBERTY MOSUNNY 53 43 68 W9 29.85F TETERBORO MOSUNNY 51 40 65 W9 29.84F CALDWELL SUNNY 51 40 65 W8 29.85F MORRISTOWN PTSUNNY 54 43 66 NW12G18 29.86F SOMERVILLE PTSUNNY 50 41 71 W3 29.86F SUSSEX MOSUNNY 49 40 71 VRB7 29.84F ANDOVER N/A 49 39 68 W6 29.85F TRENTON CLOUDY 50 40 68 W8 29.88F MILLVILLE MOSUNNY 50 42 74 W9 29.93F ATLANTIC CITY SUNNY 51 41 68 W15 29.91F WRIGHTSTOWN SUNNY 52 40 64 NW15G21 29.87F TOMS RIVER SUNNY 52 39 62 NW16G26 29.89F BELMAR MOSUNNY 50 39 66 W17 29.87F $$ PAZ047>061-062-071-171700- EASTERN PENNSYLVANIA CITY SKY/WX TMP DP RH WIND PRES REMARKS PHILADELPHIA PTSUNNY 50 40 68 W9 29.93F ALLENTOWN CLOUDY 49 39 68 W12G18 29.89F SCRANTON CLOUDY 45 39 79 SW10 29.87F $$ CTZ002-004>006-009-010-012-RIZ004-006-007-MAZ004-011-015-171700- SOUTHERN NEW ENGLAND IN CT CITY SKY/WX TMP DP RH WIND PRES REMARKS BRADLEY INTL PTSUNNY 47 41 80 W3 29.78F HARTFORD CLOUDY 47 41 80 VRB6 29.79F DANBURY PTSUNNY 48 40 73 NW6 29.82F WTRBRY/OXFORD PTSUNNY 45 39 81 NW7 29.80S BRIDGEPORT SUNNY 50 43 77 W6 29.81S MERIDEN SUNNY 49 41 74 NW3 29.79F NEW HAVEN MOSUNNY 51 42 71 W6 29.80S CHESTER FAIR 48 43 81 NW7 29.78F GROTON MOSUNNY 48 43 82 W14 29.77S WILLIMANTIC CLOUDY 45 41 86 NW7 29.77F IN RI CITY SKY/WX TMP DP RH WIND PRES REMARKS PROVIDENCE CLOUDY 46 42 86 NW7 29.74F BLOCK ISLAND PTSUNNY 46 41 81 W13G18 29.75F WESTERLY PTSUNNY 48 43 82 W6 29.76F IN MA CITY SKY/WX TMP DP RH WIND PRES REMARKS BOSTON CLOUDY 42 41 96 NW14 29.73F FOG WORCESTER CLOUDY 39 39 100 NW12 29.73F WCI 32 WESTFIELD PTSUNNY 44 41 89 W3 29.78S PROVINCETOWN CLOUDY 48 43 81 NW14G21 29.70F NANTUCKET CLOUDY 49 47 93 W13 29.69F FOG $$ ANZ330-335-338-340-345-350-353-355-171700- COASTAL MARINE OBSERVATIONS STATION/POSITION TIME SKY/WX TEMP WIND PRES VSBY WAVE AIR SEA DIR/SP/G HT/PER (UTC) (F) (DEG/KT/KT) (MB) (MI) (FT/S) NY HARB ENTRANCE 1600 47 47 280/ 14/ 17 1011.3 2/ 3 4S FIRE IS 1600 46 N/A 3/ 9 20S FIRE ISLAND 1500 49 50 1011.0 3/ 4 23SW MTP 1600 N/A 4/ 6 HUDSON CANYON 1600 49 55 290/ 19/ 23 1010.3 5/ 5 EXECUTION ROCKS 1600 53 42 280/ 12/ 16 N/A WESTERN LI SOUND 1600 48 290/ 10/ 14 N/A 1 CENTRAL LI SOUND 1500 44 44 250/ 10/ 12 N/A 1/ 2 EASTERN LI SOUND NOT AVBL ROBBINS REEF 1600 49 290/ 8/ 13 1009.6 $$ >>>>>>>>>>>>>>>>>>>>>>>>>>>> KEY <<<<<<<<<<<<<<<<<<<<<<<<<<< > < > SKY/WX - SKY CONDITION/PRESENT WEATHER < > TMP - TEMPERATURE IN FAHRENHEIT < > DP - DEWPOINT IN FAHRENHEIT < > RH - RELATIVE HUMIDITY IN PERCENT < > WIND - DIRECTION AND SPEED IN MPH < > PRES - MEAN SEA LEVEL PRESSURE IN INCHES OF HG < > WCI - WIND CHILL INDEX < > VSB - VISIBILITY IN MILES < > HX - HEAT INDEX < > TC - TEMPERATURE IN CELSIUS < > VRB - VARIABLE WIND DIRECTION < > < >>>>>>>>>>>>>>>>>>>>>>>>>>>> KEY <<<<<<<<<<<<<<<<<<<<<<<<<<<

USA.gov is the U.S. government's official web portal to all federal, state and local government web resources and services.